Year,Month,Day,Hour,Minute,Value (Times are PST for temperature in C)
2012,05,21,09,54,10.80
2012,05,21,09,55,10.80
2012,05,21,09,56,10.80
2012,05,21,09,57,10.80
2012,05,21,09,58,10.80
2012,05,21,09,59,10.90
2012,05,21,10,00,10.90
2012,05,21,10,01,10.90
2012,05,21,10,02,10.90
2012,05,21,10,03,10.90
2012,05,21,10,04,10.90
2012,05,21,10,05,10.90
2012,05,21,10,06,10.90
2012,05,21,10,07,11.00
2012,05,21,10,08,11.00
2012,05,21,10,09,11.00
2012,05,21,10,10,11.10
2012,05,21,10,11,11.10
2012,05,21,10,12,11.10
2012,05,21,10,13,11.10
2012,05,21,10,14,11.10
2012,05,21,10,15,11.10
2012,05,21,10,16,11.10
2012,05,21,10,17,11.10
2012,05,21,10,18,11.10
2012,05,21,10,19,11.20
2012,05,21,10,20,11.10
2012,05,21,10,21,11.10
2012,05,21,10,22,11.10
2012,05,21,10,23,11.10
2012,05,21,10,24,11.10
2012,05,21,10,25,11.10
2012,05,21,10,26,11.10
2012,05,21,10,27,11.10
2012,05,21,10,28,11.10
2012,05,21,10,29,11.10
2012,05,21,10,30,11.10
2012,05,21,10,31,11.10
2012,05,21,10,32,11.10
2012,05,21,10,33,11.10
2012,05,21,10,34,11.10
2012,05,21,10,35,11.10
2012,05,21,10,36,11.10
2012,05,21,10,37,11.10
2012,05,21,10,38,11.10
2012,05,21,10,39,11.10
2012,05,21,10,56,11.40
2012,05,21,10,57,11.40
2012,05,21,10,58,11.40
2012,05,21,10,59,11.40
2012,05,21,11,00,11.50
2012,05,21,11,01,11.50
2012,05,21,11,02,11.50
2012,05,21,11,03,11.50
2012,05,21,11,04,11.50
2012,05,21,11,05,11.50
2012,05,21,11,06,11.60
2012,05,21,11,07,11.60
2012,05,21,11,08,11.60
2012,05,21,11,09,11.60
2012,05,21,11,10,11.70
2012,05,21,11,11,11.70
2012,05,21,11,12,11.70
2012,05,21,11,13,11.80
2012,05,21,11,14,11.80
2012,05,21,11,15,11.90
2012,05,21,11,16,11.90
2012,05,21,11,17,12.00
2012,05,21,11,18,12.00
2012,05,21,11,19,12.00
2012,05,21,11,20,12.00
2012,05,21,11,21,12.00
2012,05,21,11,22,12.00
2012,05,21,11,23,12.00
2012,05,21,11,24,12.00
2012,05,21,11,25,12.10
2012,05,21,11,26,12.00
2012,05,21,11,27,11.90
2012,05,21,11,28,11.90
2012,05,21,11,29,11.90
2012,05,21,11,30,11.90
2012,05,21,11,31,11.90
2012,05,21,11,32,11.90
2012,05,21,11,33,11.90
2012,05,21,11,34,11.90
2012,05,21,11,35,11.90
2012,05,21,11,36,11.90
2012,05,21,11,37,11.90
2012,05,21,11,38,12.00
2012,05,21,11,39,12.10
2012,05,21,11,40,12.10
2012,05,21,11,41,12.10
2012,05,21,11,42,12.10
2012,05,21,11,43,12.10
2012,05,21,11,44,12.10
2012,05,21,11,45,12.10
2012,05,21,11,46,12.10
2012,05,21,11,47,12.10
2012,05,21,11,48,12.10
2012,05,21,11,49,12.10
2012,05,21,11,50,12.10
2012,05,21,11,51,12.20
2012,05,21,11,52,12.20
2012,05,21,11,53,12.20
2012,05,21,11,54,12.20
2012,05,21,11,55,12.30
2012,05,21,11,56,12.30
2012,05,21,11,57,12.30
2012,05,21,11,58,12.30
2012,05,21,11,59,12.30
2012,05,21,12,00,12.40
2012,05,21,12,01,12.40
2012,05,21,12,02,12.40
2012,05,21,12,03,12.40
2012,05,21,12,04,12.40
2012,05,21,12,05,12.40
2012,05,21,12,06,12.40
2012,05,21,12,07,12.40
2012,05,21,12,08,12.40
2012,05,21,12,09,12.40
2012,05,21,12,10,12.40
2012,05,21,12,11,12.40
2012,05,21,12,12,12.40
2012,05,21,13,19,12.20
2012,05,21,13,20,12.20
2012,05,21,13,21,12.20
2012,05,21,13,22,12.20
2012,05,21,13,23,12.20
2012,05,21,13,24,12.20
2012,05,21,13,25,12.20
2012,05,21,13,26,12.20
2012,05,21,13,27,12.20
2012,05,21,13,28,12.20
2012,05,21,13,29,12.20
2012,05,21,13,30,12.20
2012,05,21,13,31,12.30
2012,05,21,13,32,12.30
2012,05,21,13,33,12.30
2012,05,21,13,34,12.30
2012,05,21,13,35,12.30
2012,05,21,13,36,12.40
2012,05,21,13,37,12.50
2012,05,21,13,38,12.50
2012,05,21,13,39,12.60
2012,05,21,13,40,12.70
2012,05,21,13,41,12.70
2012,05,21,13,42,12.80
2012,05,21,13,43,12.80
2012,05,21,13,44,12.80
2012,05,21,13,45,12.80
2012,05,21,13,46,12.90
2012,05,21,13,47,12.90
2012,05,21,13,48,13.00
2012,05,21,13,49,13.00
2012,05,21,13,50,13.00
2012,05,21,13,51,13.00
2012,05,21,13,52,13.10
2012,05,21,13,53,13.10
2012,05,21,13,54,13.20
2012,05,21,13,55,13.20
2012,05,21,13,56,13.30
2012,05,21,13,57,13.30
2012,05,21,13,58,13.30
2012,05,21,13,59,13.30
2012,05,21,14,00,13.30
2012,05,21,14,01,13.30
2012,05,21,14,02,13.20
2012,05,21,14,03,13.20
2012,05,21,14,04,13.20
2012,05,21,14,05,13.20
2012,05,21,14,06,13.10
2012,05,21,14,07,13.10
2012,05,21,14,08,13.10
2012,05,21,14,09,13.10
2012,05,21,14,10,13.00
2012,05,21,14,11,13.00
2012,05,21,14,12,13.00
2012,05,21,14,13,12.90
2012,05,21,14,14,12.90
2012,05,21,14,15,12.90
2012,05,21,14,16,12.90
2012,05,21,14,17,12.90
2012,05,21,14,18,12.90
2012,05,21,14,19,13.00
2012,05,21,14,20,13.00
2012,05,21,14,21,13.10
2012,05,21,14,22,13.10
2012,05,21,14,23,13.20
2012,05,21,14,24,13.20
2012,05,21,14,25,13.30
2012,05,21,14,26,13.30
2012,05,21,14,27,13.30
2012,05,21,14,28,13.30
2012,05,21,14,29,13.30
2012,05,21,14,30,13.30
2012,05,21,14,31,13.30
2012,05,21,14,32,13.30
2012,05,21,14,33,13.30
2012,05,21,14,34,13.30
2012,05,21,14,35,13.30
2012,05,21,14,36,13.30
2012,05,21,14,37,13.30
2012,05,21,14,38,13.30
2012,05,21,14,39,13.30
2012,05,21,14,40,13.30
2012,05,21,14,41,13.30
2012,05,21,14,42,13.30
2012,05,21,14,43,13.30
2012,05,21,14,44,13.30
2012,05,21,14,45,13.30
2012,05,21,15,17,12.80
2012,05,21,15,18,12.80
2012,05,21,15,19,12.80
2012,05,21,15,20,12.90
2012,05,21,15,21,12.90
2012,05,21,15,22,12.90
2012,05,21,15,23,13.00
2012,05,21,15,24,13.00
2012,05,21,15,25,13.00
2012,05,21,15,26,13.10
2012,05,21,15,27,13.10
2012,05,21,15,28,13.20
2012,05,21,15,29,13.20
2012,05,21,15,30,13.20
2012,05,21,15,31,13.10
2012,05,21,15,32,13.10
2012,05,21,15,33,13.10
2012,05,21,15,34,13.10
2012,05,21,15,35,13.10
2012,05,21,15,36,13.10
2012,05,21,15,37,13.10
2012,05,21,15,38,13.10
2012,05,21,15,39,13.20
2012,05,21,15,40,13.20
2012,05,21,15,41,13.20
2012,05,21,15,42,13.20
2012,05,21,15,43,13.30
2012,05,21,15,44,13.30
2012,05,21,15,45,13.30
2012,05,21,15,46,13.30
2012,05,21,15,47,13.30
2012,05,21,15,48,13.30
2012,05,21,15,49,13.40
2012,05,21,15,50,13.40
2012,05,21,15,51,13.40
2012,05,21,15,52,13.40
2012,05,21,15,53,13.50
2012,05,21,15,54,13.50
2012,05,21,15,55,13.50
2012,05,21,15,56,13.40
2012,05,21,15,57,13.40
2012,05,21,15,58,13.40
2012,05,21,15,59,13.40
2012,05,21,16,00,13.40
2012,05,21,16,01,13.40
2012,05,21,16,02,13.40
2012,05,21,16,03,13.40
2012,05,21,16,04,13.40
2012,05,21,16,05,13.40
2012,05,21,16,06,13.40
2012,05,21,16,07,13.40
2012,05,21,16,08,13.40
2012,05,21,16,09,13.40
2012,05,21,16,10,13.40
2012,05,21,16,11,13.50
2012,05,21,16,12,13.50
2012,05,21,16,13,13.50
2012,05,21,16,14,13.50
2012,05,21,16,15,13.60
2012,05,21,16,16,13.60
2012,05,21,16,17,13.60
2012,05,21,16,18,13.70
2012,05,21,16,19,13.70
2012,05,21,16,20,13.80
2012,05,21,16,21,13.80
2012,05,21,16,22,13.80
2012,05,21,16,23,13.80
2012,05,21,16,24,13.80
2012,05,21,16,25,13.80
2012,05,21,16,26,13.90
2012,05,21,16,27,13.90
2012,05,21,16,28,13.90
2012,05,21,16,29,14.00
2012,05,21,16,30,14.00
2012,05,21,16,31,14.00
2012,05,21,16,32,14.00
2012,05,21,16,33,14.10
2012,05,21,16,34,14.10
2012,05,21,16,35,14.10
2012,05,21,16,36,14.20
2012,05,21,16,37,14.20
2012,05,21,16,38,14.20
2012,05,21,16,39,14.30
2012,05,21,16,40,14.30
2012,05,21,16,41,14.30
2012,05,21,16,42,14.30
2012,05,21,16,43,14.30
2012,05,21,16,44,14.20
2012,05,21,16,45,14.20
2012,05,21,16,46,14.20
2012,05,21,16,47,14.20
2012,05,21,16,48,14.20
2012,05,21,16,49,14.20
2012,05,21,16,50,14.20
2012,05,21,16,51,14.10
2012,05,21,16,52,14.10
2012,05,21,16,53,14.10
2012,05,21,16,54,14.10
2012,05,21,16,55,14.10
2012,05,21,16,56,14.10
2012,05,21,16,57,14.00
2012,05,21,16,58,14.00
2012,05,21,16,59,13.90
2012,05,21,17,00,13.90
2012,05,21,17,01,13.90
2012,05,21,17,02,13.90
2012,05,21,17,03,13.90
2012,05,21,17,04,13.90
2012,05,21,17,05,13.90
2012,05,21,17,06,13.90
2012,05,21,17,07,13.90
2012,05,21,17,08,13.80
2012,05,21,17,09,13.80
2012,05,21,17,10,13.80
2012,05,21,17,11,13.80
2012,05,21,17,12,13.80
2012,05,21,17,13,13.80
2012,05,21,17,14,13.80
2012,05,21,17,15,13.80
2012,05,21,17,16,13.80
2012,05,21,17,17,13.80
2012,05,21,17,18,13.80
2012,05,21,17,19,13.80
2012,05,21,17,20,13.80
2012,05,21,17,21,13.80
2012,05,21,17,22,13.80
2012,05,21,17,23,13.80
2012,05,21,17,24,13.80
2012,05,21,17,25,13.80
2012,05,21,17,26,13.80
2012,05,21,17,27,13.80
2012,05,21,17,28,13.80
2012,05,21,17,29,13.80
2012,05,21,17,30,13.80
2012,05,21,17,31,13.80
2012,05,21,17,32,13.70
2012,05,21,17,33,13.70
2012,05,21,17,34,13.70
2012,05,21,17,35,13.70
2012,05,21,17,36,13.60
2012,05,21,17,37,13.60
2012,05,21,17,38,13.50
2012,05,21,17,39,13.50
2012,05,21,17,40,13.50
2012,05,21,17,41,13.60
2012,05,21,17,42,13.60
2012,05,21,17,43,13.60
2012,05,21,17,44,13.60
2012,05,21,17,45,13.60
2012,05,21,17,46,13.70
2012,05,21,17,47,13.70
2012,05,21,17,48,13.70
2012,05,21,17,49,13.70
2012,05,21,17,50,13.70
2012,05,21,17,51,13.70
2012,05,21,17,52,13.80
2012,05,21,17,53,13.80
2012,05,21,17,54,13.80
2012,05,21,17,55,13.80
2012,05,21,17,56,13.90
2012,05,21,17,57,13.90
2012,05,21,17,58,13.90
2012,05,21,17,59,13.90
2012,05,21,18,00,13.90
2012,05,21,18,01,13.90
2012,05,21,18,02,13.90
2012,05,21,18,03,13.90
2012,05,21,18,04,13.90
2012,05,21,18,05,13.90
2012,05,21,18,06,13.90
